GGFTA EGSR-EGSR

Flight info

Callsign GGFTA
Flight time 0h 4m
Altitude 1200
Route VFR CIRCUITS
Aircraft P28A/L-SDFY/C

Departure

Time 2026-04-12 17:45
Airport Earls Colne Airfield (EGSR)

Arrival

Time 2026-04-12 17:50
Airport Earls Colne Airfield (EGSR)
Time Latitude Longitude Altitude Speed Heading
2026-04-12 17:29 51.91260 0.67913 234 ft 0 kts 330°
2026-04-12 17:37 51.91268 0.67925 233 ft 5 kts 116°
2026-04-12 17:37 51.91254 0.67967 233 ft 6 kts 65°
2026-04-12 17:38 51.91294 0.68080 232 ft 16 kts 61°
2026-04-12 17:38 51.91344 0.68225 233 ft 15 kts 61°
2026-04-12 17:38 51.91399 0.68380 231 ft 17 kts 59°
2026-04-12 17:38 51.91458 0.68549 234 ft 17 kts 62°
2026-04-12 17:39 51.91522 0.68731 234 ft 20 kts 60°
2026-04-12 17:39 51.91571 0.68866 235 ft 8 kts 35°
2026-04-12 17:39 51.91602 0.68872 235 ft 0 kts 303°
2026-04-12 17:43 51.91602 0.68871 235 ft 1 kts 309°
2026-04-12 17:44 51.91636 0.68877 233 ft 10 kts
2026-04-12 17:44 51.91646 0.68859 235 ft 0 kts 241°
2026-04-12 17:44 51.91625 0.68797 237 ft 25 kts 241°
2026-04-12 17:45 51.91456 0.68297 278 ft 67 kts 239°
2026-04-12 17:45 51.91229 0.67652 572 ft 66 kts 238°
2026-04-12 17:45 51.90992 0.66968 803 ft 71 kts 239°
2026-04-12 17:45 51.90726 0.66315 1068 ft 72 kts 227°
2026-04-12 17:46 51.90203 0.66181 1227 ft 90 kts 176°
2026-04-12 17:46 51.89623 0.66631 1235 ft 93 kts 163°
2026-04-12 17:46 51.89108 0.67295 1199 ft 100 kts 124°
2026-04-12 17:46 51.89212 0.68411 1185 ft 109 kts 57°
2026-04-12 17:47 51.89579 0.69460 1180 ft 105 kts 66°
2026-04-12 17:47 51.89922 0.70532 1147 ft 108 kts 62°
2026-04-12 17:47 51.90259 0.71502 1171 ft 89 kts 58°
2026-04-12 17:47 51.90591 0.72356 1144 ft 92 kts 49°
2026-04-12 17:48 51.91129 0.72636 1086 ft 78 kts 332°
2026-04-12 17:48 51.91603 0.72208 971 ft 79 kts 313°
2026-04-12 17:48 51.92078 0.71743 836 ft 76 kts 318°
2026-04-12 17:48 51.92310 0.71091 642 ft 66 kts 268°
2026-04-12 17:49 51.92189 0.70410 462 ft 63 kts 241°
2026-04-12 17:49 51.91972 0.69800 417 ft 60 kts 243°
2026-04-12 17:49 51.91772 0.69222 323 ft 58 kts 238°
2026-04-12 17:49 51.91577 0.68661 248 ft 57 kts 239°
2026-04-12 17:50 51.91407 0.68181 230 ft 46 kts 240°
2026-04-12 17:50 51.91227 0.67649 394 ft 54 kts 240°
2026-04-12 17:50 51.91046 0.67098 557 ft 62 kts 240°
2026-04-12 17:50 51.90856 0.66471 832 ft 57 kts 235°
2026-04-12 17:51 51.90635 0.65938 1109 ft 52 kts 227°
2026-04-12 17:51 51.90324 0.65460 1334 ft 63 kts 222°
2026-04-12 17:51 51.89839 0.65500 1372 ft 94 kts 147°
2026-04-12 17:51 51.89450 0.66366 1386 ft 92 kts 142°
2026-04-12 17:52 51.89145 0.67294 1382 ft 104 kts 112°
2026-04-12 17:52 51.89325 0.68486 1325 ft 115 kts 59°
2026-04-12 17:52 51.89736 0.69604 1268 ft 116 kts 60°
2026-04-12 17:52 51.90129 0.70717 1208 ft 112 kts 61°
2026-04-12 17:53 51.90470 0.71754 1165 ft 100 kts 61°
2026-04-12 17:53 51.90785 0.72688 1153 ft 92 kts 59°
2026-04-12 17:53 51.91271 0.73311 1065 ft 89 kts 359°
2026-04-12 17:53 51.91801 0.73072 985 ft 77 kts 321°
2026-04-12 17:54 51.92229 0.72620 879 ft 72 kts 307°
2026-04-12 17:54 51.92605 0.72129 796 ft 68 kts 301°
2026-04-12 17:54 51.92626 0.71472 693 ft 62 kts 236°
2026-04-12 17:54 51.92375 0.70886 559 ft 64 kts 237°
2026-04-12 17:55 51.92145 0.70299 463 ft 59 kts 236°
2026-04-12 17:55 51.91949 0.69736 421 ft 55 kts 242°
2026-04-12 17:55 51.91767 0.69189 336 ft 55 kts 237°
2026-04-12 17:55 51.91576 0.68668 242 ft 52 kts 241°
2026-04-12 17:56 51.91432 0.68245 229 ft 39 kts 240°
2026-04-12 17:56 51.91239 0.67697 307 ft 64 kts 239°
2026-04-12 17:56 51.91046 0.67108 589 ft 54 kts 238°
2026-04-12 17:56 51.90907 0.66484 803 ft 62 kts 245°
2026-04-12 17:57 51.90631 0.65974 1004 ft 69 kts 198°
2026-04-12 17:57 51.90137 0.66260 1176 ft 87 kts 156°
2026-04-12 17:57 51.89638 0.66810 1274 ft 87 kts 153°
2026-04-12 17:57 51.89329 0.67701 1240 ft 108 kts 92°
2026-04-12 17:58 51.89640 0.68822 1177 ft 110 kts 69°
2026-04-12 17:58 51.89973 0.69910 1165 ft 111 kts 64°
2026-04-12 17:58 51.90349 0.70948 1219 ft 101 kts 58°
2026-04-12 17:58 51.90689 0.71863 1220 ft 90 kts 57°
2026-04-12 17:59 51.91051 0.72706 1173 ft 93 kts 43°
2026-04-12 17:59 51.91638 0.72989 1016 ft 88 kts 341°
2026-04-12 17:59 51.92165 0.72658 919 ft 79 kts 318°
2026-04-12 17:59 51.92633 0.72225 829 ft 76 kts 318°
2026-04-12 18:00 51.92828 0.71623 699 ft 59 kts 259°
2026-04-12 18:00 51.92586 0.71162 587 ft 54 kts 221°
2026-04-12 18:00 51.92325 0.70728 501 ft 57 kts 246°
2026-04-12 18:00 51.92122 0.70189 506 ft 56 kts 239°
2026-04-12 18:01 51.91911 0.69622 418 ft 59 kts 241°
2026-04-12 18:01 51.91722 0.69088 315 ft 50 kts 243°
2026-04-12 18:01 51.91557 0.68602 241 ft 52 kts 239°
2026-04-12 18:01 51.91412 0.68190 230 ft 45 kts 241°
2026-04-12 18:02 51.91223 0.67647 367 ft 58 kts 237°
2026-04-12 18:02 51.91026 0.67073 573 ft 60 kts 238°
2026-04-12 18:02 51.90816 0.66417 725 ft 71 kts 242°
2026-04-12 18:02 51.90617 0.65706 1010 ft 67 kts 231°
2026-04-12 18:03 51.90177 0.65532 1215 ft 82 kts 172°
2026-04-12 18:03 51.89664 0.66055 1263 ft 87 kts 157°
2026-04-12 18:03 51.89141 0.66620 1210 ft 96 kts 143°
2026-04-12 18:03 51.88990 0.67671 1205 ft 106 kts 76°
2026-04-12 18:04 51.89317 0.68740 1230 ft 105 kts 62°
2026-04-12 18:04 51.89699 0.69728 1238 ft 106 kts 60°
2026-04-12 18:04 51.90060 0.70740 1227 ft 92 kts 60°
2026-04-12 18:04 51.90493 0.71377 1090 ft 80 kts
2026-04-12 18:05 51.91001 0.71326 935 ft 67 kts 324°
2026-04-12 18:05 51.91321 0.70874 804 ft 59 kts 295°
2026-04-12 18:05 51.91549 0.70345 613 ft 58 kts 280°
2026-04-12 18:05 51.91690 0.69763 429 ft 52 kts 266°
2026-04-12 18:06 51.91661 0.69122 467 ft 60 kts 256°
2026-04-12 18:06 51.91544 0.68416 698 ft 70 kts 240°
2026-04-12 18:06 51.91330 0.67748 1042 ft 66 kts 241°
2026-04-12 18:06 51.91124 0.67059 1229 ft 69 kts 242°
2026-04-12 18:07 51.90850 0.66391 1223 ft 75 kts 214°
2026-04-12 18:07 51.90311 0.66440 1206 ft 87 kts 161°
2026-04-12 18:07 51.89784 0.66941 1236 ft 88 kts 156°
2026-04-12 18:07 51.89478 0.67837 1219 ft 105 kts 94°
2026-04-12 18:08 51.89763 0.68931 1251 ft 107 kts 59°
2026-04-12 18:08 51.90165 0.69983 1232 ft 110 kts 57°
2026-04-12 18:08 51.90588 0.70899 1244 ft 89 kts 30°
2026-04-12 18:08 51.91137 0.71016 1065 ft 76 kts 333°
2026-04-12 18:09 51.91566 0.70630 858 ft 69 kts 299°
2026-04-12 18:09 51.91794 0.69987 638 ft 65 kts 276°
2026-04-12 18:09 51.91774 0.69292 404 ft 55 kts 249°
2026-04-12 18:09 51.91632 0.68823 253 ft 42 kts 242°
2026-04-12 18:10 51.91462 0.68346 324 ft 53 kts 241°
2026-04-12 18:10 51.91285 0.67830 466 ft 53 kts 238°
2026-04-12 18:10 51.91087 0.67313 696 ft 59 kts 236°
2026-04-12 18:10 51.90875 0.66687 918 ft 66 kts 238°
2026-04-12 18:11 51.90479 0.66358 1147 ft 77 kts 177°
2026-04-12 18:11 51.89971 0.66826 1233 ft 84 kts 153°
2026-04-12 18:11 51.89513 0.67447 1212 ft 93 kts 127°
2026-04-12 18:11 51.89654 0.68488 1214 ft 105 kts 57°
2026-04-12 18:12 51.90042 0.69502 1232 ft 106 kts 59°
2026-04-12 18:12 51.90413 0.70542 1241 ft 104 kts 60°
2026-04-12 18:12 51.90869 0.71268 1129 ft 87 kts 15°
2026-04-12 18:12 51.91234 0.71334 1035 ft 74 kts 337°
2026-04-12 18:13 51.91554 0.70833 827 ft 64 kts 284°
2026-04-12 18:13 51.91686 0.70160 654 ft 61 kts 272°
2026-04-12 18:13 51.91744 0.69287 407 ft 58 kts 257°
2026-04-12 18:13 51.91597 0.68724 250 ft 45 kts 240°
2026-04-12 18:14 51.91509 0.68470 233 ft 36 kts 240°
2026-04-12 18:14 51.91325 0.67923 309 ft 64 kts 240°
2026-04-12 18:14 51.91116 0.67300 551 ft 61 kts 239°
2026-04-12 18:14 51.90920 0.66700 813 ft 63 kts 236°
2026-04-12 18:15 51.90632 0.66182 1089 ft 66 kts 199°
2026-04-12 18:15 51.90152 0.66500 1198 ft 87 kts 144°
2026-04-12 18:15 51.89680 0.67057 1217 ft 86 kts 155°
2026-04-12 18:15 51.89367 0.67917 1221 ft 101 kts 99°
2026-04-12 18:16 51.89633 0.69006 1229 ft 108 kts 62°
2026-04-12 18:16 51.90012 0.70034 1266 ft 107 kts 58°
2026-04-12 18:16 51.90394 0.71056 1313 ft 102 kts 57°
2026-04-12 18:16 51.90771 0.71956 1298 ft 92 kts 53°
2026-04-12 18:17 51.91150 0.72753 1221 ft 89 kts 39°
2026-04-12 18:17 51.91725 0.73009 1099 ft 84 kts 342°
2026-04-12 18:17 51.92274 0.72734 999 ft 80 kts 327°
2026-04-12 18:17 51.92689 0.72250 865 ft 66 kts 289°
2026-04-12 18:18 51.92650 0.71594 725 ft 59 kts 236°
2026-04-12 18:18 51.92427 0.71069 576 ft 56 kts 237°
2026-04-12 18:18 51.92244 0.70539 654 ft 44 kts 241°
2026-04-12 18:18 51.92052 0.70005 472 ft 58 kts 237°
2026-04-12 18:19 51.91851 0.69445 345 ft 56 kts 240°
2026-04-12 18:19 51.91665 0.68915 274 ft 53 kts 239°
2026-04-12 18:19 51.91494 0.68425 228 ft 42 kts 239°
2026-04-12 18:19 51.91392 0.68127 229 ft 20 kts 241°
2026-04-12 18:20 51.91330 0.67994 229 ft 14 kts 239°
2026-04-12 18:20 51.91285 0.67870 232 ft 11 kts 242°
2026-04-12 18:20 51.91239 0.67774 232 ft 11 kts 194°
2026-04-12 18:20 51.91173 0.67722 231 ft 11 kts 239°
2026-04-12 18:21 51.91150 0.67625 231 ft 6 kts 243°
2026-04-12 18:21 51.91149 0.67622 231 ft 0 kts 243°
2026-04-12 18:21 51.91149 0.67605 232 ft 3 kts 318°
2026-04-12 18:21 51.91158 0.67602 232 ft 0 kts 343°